Snowfall_Accumulation
0.0 0.0 0.0 0.0 0.0 0.0 0.0 0.0 0.0 0.0 0.0 0.0 0.0 0.0 0.0 0.0 0.0 0.0 0.0 0.0 0.0 0.0 0.0 0.0 0.0 0.0 0.0 0.0 0.0 0.0 0.0 2.9 1.7 0.3 0.0 0.0 0.0 0.0 0.0 0.0 0.0 0.0 0.0 0.0 0.0
0.0 0.0 0.0 0.0 0.0 0.0 0.0 0.0 0.0 0.0 0.0 0.0 0.0 0.0 0.0 0.0 0.0 0.0 0.0 0.0 0.0 0.0 0.0 0.0 0.0 0.0 0.0 0.0 0.0 0.0 0.9 0.0 0.0 0.0 0.0 0.0 0.0 0.0 0.0 0.0 0.0 0.0 0.0 0.0 0.0
0.0 0.0 0.0 0.0 0.0 0.0 0.0 0.0 0.0 0.0 0.0 0.0 0.0 0.0 0.0 0.0 0.0 0.0 0.0 0.0 0.0 0.0 0.0 0.0 0.0 0.0 0.0 0.0 0.0 0.0 0.3 0.0 0.0 0.0 0.0 0.0 0.0 0.0 0.0 0.0 0.0 0.0 0.0 0.0 0.0
0.0 0.0 0.0 0.0 0.0 0.0 0.0 0.0 0.0 0.0 0.0 0.0 0.0 0.0 0.0 0.0 0.0 0.0 0.0 0.0 0.0 0.0 0.0 0.0 0.0 0.0 0.1 0.3 0.0 0.6 0.0 0.0 0.0 0.0 0.0 0.0 0.0 0.0 0.0 0.0 0.0 0.0 0.0 0.0 0.0
0.0 0.0 0.0 0.0 0.0 0.0 0.0 0.0 0.0 0.0 0.0 0.0 0.0 0.0 0.0 0.0 0.0 0.0 0.0 0.0 0.0 0.0 0.0 0.0 0.0 0.0 0.8 0.5 0.0 0.1 0.0 0.0 0.0 0.0 0.0 0.0 0.0 0.0 0.0 0.0 0.0 0.0 0.0 0.0 0.0
0.0 0.0 0.0 0.0 0.0 0.0 0.0 0.0 0.0 0.0 0.0 0.0 0.0 0.0 0.0 0.1 0.0 0.0 0.0 0.0 0.0 0.0 0.0 0.0 0.0 0.0 0.0 1.1 1.2 0.0 0.0 0.0 0.0 0.0 0.0 0.0 0.0 0.0 0.0 0.0 0.0 0.0 0.0 0.0 0.0
0.0 0.0 0.0 0.0 0.0 0.0 0.0 0.0 0.0 0.0 0.0 0.0 0.0 0.0 0.0 0.0 0.0 0.0 0.0 0.0 0.0 0.0 0.0 0.0 0.0 0.0 0.0 0.9 0.0 0.0 0.6 0.0 0.0 0.0 0.0 0.0 0.0 0.0 0.0 0.0 0.0 0.0 0.0 0.0 0.0
0.0 0.0 0.0 0.0 0.0 0.0 0.0 0.0 0.0 0.0 0.0 0.0 0.0 0.0 0.0 0.0 0.0 0.0 0.0 0.0 0.0 0.0 0.0 0.0 0.0 0.0 0.0 0.0 0.0 0.6 0.0 1.0 0.0 0.0 0.0 0.0 1.6 0.0 0.0 0.0 0.0 0.0 0.0 0.0 0.0
0.0 0.0 0.0 0.0 0.0 0.0 0.0 0.0 0.0 0.0 0.0 0.0 0.0 0.0 0.0 0.0 0.0 0.0 0.0 0.0 0.0 0.0 0.0 0.0 0.0 0.0 0.0 0.7 0.6 0.0 1.4 0.2 0.0 0.0 0.0 0.0 1.4 0.0 0.0 0.0 0.0 0.0 0.0 0.0 0.0
0.0 0.0 0.0 0.0 0.0 0.0 0.0 0.0 0.0 0.0 0.0 0.0 0.0 0.1 0.0 0.0 0.0 0.0 0.0 0.0 0.0 0.0 0.0 0.0 0.0 1.5 0.5 2.7 4.3 0.4 1.2 0.4 0.6 0.0 0.0 0.0 0.0 0.0 0.0 0.0 0.0 0.0 0.0 0.0 0.0
0.0 0.0 0.0 0.0 0.0 0.0 0.0 0.0 0.0 0.0 0.0 0.0 0.0 0.0 0.0 0.0 0.0 0.0 0.0 0.0 0.0 0.0 0.3 0.1 2.8 3.3 1.9 0.3 0.8 0.3 1.2 1.2 0.3 0.9 0.8 1.2 0.0 0.0 0.0 0.0 0.0 0.0 0.0 0.0 0.0
0.0 0.0 0.0 0.0 0.0 0.0 0.0 0.0 0.0 0.0 1.0 0.0 0.0 0.0 0.0 0.0 0.0 0.0 0.0 0.0 0.0 0.3 0.1 0.8 0.1 0.0 0.0 0.0 0.7 0.8 0.9 0.6 0.0 0.0 0.0 0.6 0.0 0.0 0.0 0.0 0.0 0.0 0.0 0.0 0.0
0.0 0.0 0.0 0.0 0.0 0.0 0.0 0.0 0.0 0.0 4.2 0.0 0.0 0.0 0.0 0.0 0.0 0.0 0.0 0.0 0.1 0.5 0.3 1.1 0.0 0.0 0.2 1.7 4.0 0.2 0.2 0.1 0.0 0.0 0.0 0.0 0.1 0.0 0.0 0.0 0.0 0.0 0.0 0.0 0.0
0.0 0.0 0.0 0.0 0.0 0.0 0.0 0.0 0.0 0.0 17.8 1.4 0.0 0.0 0.0 0.0 0.0 0.0 0.0 0.0 2.6 0.3 0.4 0.2 0.0 0.0 0.0 0.3 1.7 3.7 0.0 0.0 0.0 1.8 4.4 0.0 1.1 0.0 0.0 0.0 0.0 0.0 0.0 0.0 0.0
0.0 0.0 0.0 0.0 0.0 0.0 0.0 0.0 0.0 0.0 31.2 0.2 0.5 0.0 0.0 0.0 0.0 0.0 0.0 0.0 3.4 1.1 0.9 0.5 0.0 1.2 1.7 0.0 0.6 1.9 0.0 0.3 0.0 1.2 2.8 0.5 3.8 0.1 0.0 0.0 0.0 0.0 0.0 0.0 0.0
0.0 0.0 0.0 0.0 0.0 0.0 0.0 0.0 0.0 28.9 28.1 0.5 0.2 0.5 0.5 0.1 0.0 0.0 0.0 0.0 0.0 5.1 2.5 0.2 0.0 0.0 0.6 0.0 0.0 0.0 1.6 0.9 0.2 7.0 20.0 2.0 0.8 0.5 0.0 0.0 0.0 0.0 0.0 0.0 0.0
0.0 0.0 0.0 0.0 0.0 0.0 0.0 0.0 40.9 31.8 0.0 0.6 0.7 0.2 0.7 2.1 0.8 0.3 6.8 8.5 6.9 14.5 10.1 1.2 0.0 0.0 0.0 1.0 0.1 1.6 8.6 24.0 24.3 25.2 16.5 0.3 3.4 0.2 0.0 0.0 0.0 0.0 0.0 0.0 0.0
0.0 0.0 0.0 0.0 0.0 0.0 0.0 23.3 44.5 3.8 0.4 0.2 0.3 0.8 2.4 2.0 1.9 1.2 2.2 4.7 5.0 6.1 12.6 6.5 2.9 0.1 0.0 0.0 3.4 4.5 7.5 14.7 11.9 6.9 2.7 0.6 4.4 0.1 0.0 0.0 0.0 0.0 0.0 0.0 0.0
0.0 0.0 0.0 0.0 0.0 0.0 7.7 47.8 18.8 1.3 1.0 1.2 0.9 2.7 2.1 3.6 5.5 3.6 1.2 3.1 3.3 8.2 16.2 13.2 1.8 0.1 0.0 0.0 0.2 4.4 11.3 3.2 3.9 1.9 2.1 1.8 0.0 0.0 0.0 0.0 0.0 0.0 0.0 0.0 0.0
0.0 0.0 0.0 0.0 0.0 0.0 33.4 28.4 2.6 0.9 0.8 1.6 2.9 2.1 4.7 3.8 5.4 9.3 5.8 4.6 5.9 3.7 9.6 13.7 9.7 0.4 0.9 0.0 0.0 2.6 1.8 6.7 13.4 15.0 5.2 1.0 0.6 0.1 0.0 0.0 0.0 0.0 0.0 0.0 0.0
0.0 5.2 0.0 0.0 0.0 5.3 34.2 10.1 0.8 0.2 1.2 3.4 3.2 3.5 2.4 7.3 6.5 9.3 12.3 4.0 5.1 4.8 7.5 16.1 15.0 5.9 0.8 3.5 1.2 2.9 9.1 6.1 10.0 6.9 3.3 1.8 1.0 0.6 0.6 0.3 0.0 0.0 0.0 0.0 0.0
0.0 23.3 0.0 0.0 17.4 30.2 14.4 2.1 0.4 0.2 0.4 0.9 1.4 2.0 1.6 2.8 8.8 7.7 3.0 8.1 1.3 3.5 6.8 8.9 17.7 12.7 3.3 0.6 1.2 0.8 6.4 5.5 10.9 5.9 4.4 2.6 0.9 0.7 0.8 0.6 0.1 0.0 0.0 0.0 0.0
16.1 4.6 0.0 0.0 31.0 17.0 3.6 2.0 2.1 0.8 0.7 1.4 1.8 2.1 1.1 2.1 8.9 6.4 4.5 0.3 3.3 6.2 10.3 10.9 17.0 15.0 11.9 6.5 0.4 4.9 2.1 4.5 5.3 5.3 3.2 4.7 0.8 0.5 0.7 0.7 0.0 0.1 0.0 0.0 0.0
18.8 22.0 14.6 13.4 10.4 4.8 5.8 3.2 3.8 0.4 0.3 0.8 1.1 1.6 4.9 2.6 2.8 4.5 2.1 2.4 0.2 5.3 0.6 5.5 10.4 11.0 8.3 11.2 11.8 10.2 3.4 2.7 4.8 6.1 5.2 2.2 0.6 0.1 0.2 0.3 0.3 0.3 0.0 0.0 0.0
14.1 24.7 0.4 18.2 14.6 6.0 10.9 7.8 2.6 1.8 2.1 2.2 2.6 0.9 4.3 8.2 4.5 4.0 1.5 0.8 3.6 0.0 3.5 11.2 8.9 4.5 0.6 1.1 3.3 4.7 6.7 5.6 5.5 2.5 5.1 1.9 1.9 0.4 0.6 0.3 0.6 0.9 0.3 0.0 0.0
13.5 11.6 5.2 9.0 1.3 6.8 11.3 8.1 1.4 2.2 4.6 2.1 2.4 1.1 1.3 4.1 3.0 5.9 7.1 4.9 8.4 8.2 11.2 15.3 6.7 2.9 2.6 1.0 1.3 2.0 1.8 3.9 3.9 1.2 1.2 1.6 1.6 1.1 0.8 0.0 0.2 1.7 0.5 0.0 0.0
1.1 0.0 11.0 10.6 6.3 11.7 11.7 4.7 4.7 5.0 1.8 0.2 0.6 3.0 1.7 1.0 0.0 0.0 0.0 3.1 5.5 10.9 10.5 12.8 9.4 6.3 6.7 1.4 4.9 5.6 6.3 4.3 2.1 3.4 1.9 2.2 2.2 0.9 0.1 0.9 1.9 2.8 2.8 1.2 0.4